www.pogodaiklimat.ru

Погода и климат >> Архив погоды >> Франц. Южн. Территории >> Порт-о-Франсе


ПОГОДА в Порт-о-Франсе

  • Прогноз погоды в Порт-о-Франсе
  • Монитор погоды в Порт-о-Франсе

АРХИВ ПОГОДЫ в Порт-о-Франсе

Время (UTC), дата Ветер
(напр.,м/с)
 
Видим.   Явления Облачность Т
(С)
Тd
(С)
f
(%)
Тe
(С)
Тes
(С)
Комфортность P
(гПа)
Po
(гПа)
Тmin
(С)
Tmax
(С)
R
(мм)
R24
(мм)
S
(см)
22 12.08 С 6
{10}
н/о н/о +2.7 +1.4 91 -3 -3 998.2 994.5 0.4
23 12.08 С 5
{11}
н/о н/о +4.4 +3.1 91 -1 -1 995.8 992.1 1
00 13.08 СЗ 9
{12}
н/о н/о +5.6 +3.8 88 -0 -0 993.6 990.0 2
01 13.08 СЗ 6
{19}
н/о н/о +6.7 +4.5 86 +2 +2 992.5 988.9
02 13.08 ЮЗ 3
{11}
н/о н/о +7.0 +4.5 84 +4 +4 991.8 988.2
03 13.08 ЮЗ 4
{14}
н/о н/о +7.2 +5.0 86 +4 +4 991.0 987.4
04 13.08 З 7
{12}
н/о н/о +7.7 +5.7 87 +3 +3 990.5 986.9
05 13.08 З 12
{17}
н/о н/о +8.0 +5.1 82 +2 +2 991.0 987.4
06 13.08 З 11
{17}
н/о н/о +8.1 +4.7 79 +3 +3 992.1 988.5 +0.7 2
07 13.08 З 13
{20}
н/о н/о +9.8 +3.3 64 +5 +5 991.8 988.2
08 13.08 З 10
{21}
н/о н/о +9.5 +0.4 53 +5 +5 992.7 989.1
09 13.08 СЗ 13
{18}
н/о н/о +7.9 +1.3 63 +2 +2 992.4 988.8
10 13.08 З 14
{19}
н/о н/о +6.7 +1.0 67 0 0 993.0 989.4
11 13.08 З 10
{17}
н/о н/о +7.1 -0.4 59 +2 +2 992.7 989.1
12 13.08 З 11
{15}
н/о н/о +5.2 -0.4 67 -1 -1 992.8 989.2
13 13.08 З 10
{17}
н/о н/о +4.3 -1.3 67 -2 -2 992.4 988.8
14 13.08 З 9
{15}
н/о н/о +4.0 -1.8 66 -2 -2 992.6 988.9
15 13.08 З 10
{16}
н/о н/о +3.5 -1.5 70 -3 -3 992.1 988.4
16 13.08 З 9
{14}
н/о н/о +3.2 -1.4 72 -3 -3 992.0 988.3
17 13.08 З 7
{12}
н/о н/о +3.0 -1.4 73 -3 -3 991.9 988.2
18 13.08 З 8
{13}
н/о н/о +3.0 -1.6 72 -3 -3 991.2 987.5 +9.9
19 13.08 СЗ 9
{13}
н/о н/о +2.9 -0.9 76 -4 -4 990.9 987.2
20 13.08 СЗ 9
{12}
н/о н/о +2.5 -0.9 78 -4 -4 990.5 986.8
21 13.08 СЗ 8
{11}
н/о н/о +2.4 -1.4 76 -4 -4 990.1 986.4
22 13.08 З 7
{11}
н/о н/о +2.2 -2.0 74 -4 -4 989.9 986.2
23 13.08 СЗ 7
{11}
н/о н/о +2.1 -1.9 75 -4 -4 989.5 985.8
00 14.08 СЗ 9
{13}
н/о н/о +2.0 -2.5 72 -5 -5 989.1 985.4
01 14.08 СЗ 8
{12}
н/о н/о +1.8 -2.2 75 -5 -5 988.9 985.2
02 14.08 СЗ 9
{13}
н/о н/о +1.9 -1.9 76 -5 -5 989.0 985.3
03 14.08 З 8
{14}
н/о н/о +1.4 -1.5 81 -6 -6 989.5 985.8
04 14.08 З 13
{17}
н/о н/о +2.8 -2.1 70 -5 -5 989.3 985.6
05 14.08 З 14
{20}
н/о н/о +3.1 -2.8 65 -5 -5 989.5 985.8
06 14.08 З 14
{21}
н/о н/о +2.9 -1.8 71 -5 -5 990.4 986.7 +0.9
07 14.08 З 13
{23}
н/о н/о +3.3 -2.0 68 -4 -4 991.0 987.3 0.2
08 14.08 З 14
{21}
н/о н/о +4.0 -2.0 65 -4 -4 991.2 987.6
09 14.08 З 14
{22}
н/о н/о +2.6 -2.3 70 -6 -6 992.6 988.9 0.2
10 14.08 З 11
{20}
н/о н/о +0.8 -1.0 88 -8 -8 995.2 991.5 0.2
11 14.08 ЮЗ 17
{23}
н/о н/о +0.5 -2.7 79 -9 -9 997.2 993.5
12 14.08 ЮЗ 17
{24}
н/о н/о +0.8 -3.5 73 -9 -9 999.0 995.3 0.4
13 14.08 З 16
{24}
н/о н/о +0.6 -3.9 72 -9 -9 1000.9 997.2
14 14.08 З 16
{23}
н/о н/о +0.9 -5.1 64 -8 -8 1002.5 998.8
15 14.08 З 12
{26}
н/о н/о +0.5 -4.2 71 -8 -8 1004.3 1000.6
16 14.08 З 15
{21}
н/о н/о +0.3 -3.4 76 -9 -9 1005.8 1002.0
17 14.08 З 13
{25}
н/о н/о +0.1 -3.1 79 -9 -9 1007.4 1003.6
18 14.08 З 12
{16}
н/о н/о 0.0 -3.7 76 -9 -9 1008.4 1004.6 +4.2 0.4
19 14.08 З 9
{17}
н/о н/о +0.2 -4.4 71 -7 -7 1009.8 1006.0
20 14.08 З 10
{15}
н/о н/о 0.0 -4.6 71 -8 -8 1011.3 1007.5
21 14.08 З 8
{13}
н/о н/о +0.3 -5.3 66 -7 -7 1012.3 1008.5
22 14.08 З 5
{9}
н/о н/о -0.2 -6.0 65 -6 -6 1012.8 1009.0
23 14.08 З 4
{8}
н/о н/о -0.3 -5.7 67 -5 -5 1013.3 1009.5
00 15.08 СЗ 5
{9}
н/о н/о +0.3 -6.1 62 -5 -5 1013.4 1009.6
01 15.08 С 4
{7}
н/о н/о -0.2 -5.4 68 -5 -5 1013.0 1009.2
02 15.08 СВ 4
{6}
н/о н/о -0.3 -4.7 72 -5 -5 1012.2 1008.4
03 15.08 С 6
{9}
н/о н/о +0.9 -3.4 73 -5 -5 1011.8 1008.0
04 15.08 С 9
{12}
н/о н/о -0.4 -2.6 85 -8 -8 1010.5 1006.7
05 15.08 С 8
{12}
н/о н/о -0.1 -1.5 90 -8 -8 1009.0 1005.2 0.4
06 15.08 С 7
{12}
н/о н/о 0.0 -1.0 93 -7 -7 1007.4 1003.6 -0.9 2
07 15.08 С 5
{9}
н/о н/о +0.5 -0.4 94 -6 -6 1005.1 1001.4 2
08 15.08 СЗ 5
{17}
н/о н/о +2.3 +1.6 95 -3 -3 1003.2 999.5 0.2
09 15.08 СЗ 11
{16}
н/о н/о +3.9 +3.0 94 -4 -4 1002.5 998.8 2
10 15.08 СЗ 10
{15}
н/о н/о +5.6 +4.7 94 -1 -1 1002.4 998.7 0.2
11 15.08 СЗ 9
{14}
н/о н/о +4.9 +3.6 91 -1 -1 1002.1 998.4
12 15.08 СЗ 9
{14}
н/о н/о +4.7 +2.4 85 -2 -2 1001.6 997.9 3
13 15.08 СЗ 13
{19}
н/о н/о +5.1 +3.1 87 -2 -2 1001.0 997.3
14 15.08 СЗ 14
{20}
н/о н/о +5.8 +3.8 87 -1 -1 999.9 996.2
15 15.08 С 11
{20}
н/о н/о +5.3 +3.6 89 -1 -1 998.8 995.1 0.2
16 15.08 С 13
{18}
н/о н/о +6.2 +4.2 87 -1 -1 997.1 993.5 0.4
17 15.08 С 13
{19}
н/о н/о +6.0 +3.3 83 -1 -1 995.6 992.0 0.2
18 15.08 С 10
{19}
н/о н/о +4.2 +2.4 88 -3 -3 994.7 991.0 +6.2 3
19 15.08 С 9
{13}
н/о н/о +3.9 +2.7 92 -3 -3 992.6 988.9 0.2
20 15.08 СВ 8
{12}
н/о н/о +4.4 +3.4 93 -2 -2 990.4 986.8 1
21 15.08 СВ 8
{11}
н/о н/о +4.2 +3.2 93 -2 -2 987.0 983.4 2
22 15.08 СВ 9
{12}
н/о н/о +4.6 +3.7 94 -2 -2 982.1 978.5 2
23 15.08 СВ 17
{26}
н/о н/о +5.0 +4.0 93 -3 -3 977.6 974.0 4
00 16.08 С 17
{23}
н/о н/о +5.4 +4.5 94 -3 -3 974.4 970.8 13
01 16.08 С 16
{24}
н/о н/о +6.1 +5.2 94 -1 -1 971.6 968.1 1
02 16.08 С 19
{25}
н/о н/о +6.9 +6.0 94 -1 -1 968.1 964.6 1
03 16.08 С 24
{32}
8000 м слаб. дождь 10/10 600 м
[Sc]
+5.0 +3.5 90 -4 -4 966.1 962.6 3
04 16.08 С 21
{30}
н/о н/о +3.7 +2.1 89 -5 -5 963.5 960.0 0.2
05 16.08 СЗ 22
{28}
н/о н/о +5.7 +3.9 88 -3 -3 961.2 957.7 0.4
06 16.08 СЗ 19
{33}
15 км слаб. ливневой дождь 9/9 600 м
[Sc]
+4.8 +1.5 79 -3 -3 966.0 962.5 +4.0 19
07 16.08 СЗ 15
{27}
н/о н/о +5.2 +1.5 77 -2 -2 967.7 964.2 0.0
08 16.08 СЗ 20
{27}
н/о н/о +4.7 +1.0 77 -4 -4 966.1 962.6 0.0
09 16.08 СЗ 16
{27}
н/о н/о +5.0 +1.3 77 -3 -3 967.4 963.9 0.0
10 16.08 СЗ 17
{24}
н/о н/о +4.1 -0.3 73 -4 -4 966.8 963.2 0.0
11 16.08 СЗ 10
{23}
н/о н/о +3.9 -0.1 75 -3 -3 967.6 964.0 0.0
12 16.08 СЗ 8
{18}
н/о н/о +4.3 +0.8 78 -2 -2 966.4 962.8 0.0
13 16.08 С 12
{19}
н/о н/о +4.3 +1.0 79 -3 -3 964.4 960.9 0.4
14 16.08 С 15
{22}
н/о н/о +3.9 +1.6 85 -4 -4 961.9 958.4 0.0
15 16.08 С 12
{20}
н/о н/о +3.7 +2.2 90 -4 -4 957.8 954.3 3
16 16.08 СЗ 16
{22}
н/о н/о +4.6 +2.9 89 -4 -4 954.1 950.6 0.6
17 16.08 СЗ 13
{24}
н/о н/о +2.6 0.0 83 -5 -5 955.6 952.1 0.2
18 16.08 СЗ 17
{23}
н/о н/о +2.1 -0.5 83 -7 -7 956.5 953.0 +6.1 5
19 16.08 З 12
{23}
н/о н/о +2.4 -1.6 75 -5 -5 957.3 953.8
20 16.08 СЗ 14
{20}
н/о н/о +2.7 -1.5 74 -5 -5 957.1 953.6 0.2
21 16.08 СЗ 13
{23}
н/о н/о +2.1 -2.6 71 -6 -6 957.5 954.0 0.2
22 16.08 СЗ 15
{21}
н/о н/о +2.7 -1.3 75 -6 -6 957.0 953.5
23 16.08 СЗ 14
{21}
н/о н/о +2.6 -0.7 79 -6 -6 956.8 953.3 0.4
00 17.08 СЗ 10
{21}
н/о н/о +2.5 -0.9 78 -5 -5 957.3 953.8 0.6
01 17.08 СЗ 10
{16}
н/о н/о +2.1 -1.0 80 -5 -5 957.0 953.5 0.4
02 17.08 СЗ 12
{17}
н/о н/о +1.6 -1.1 82 -7 -7 957.0 953.4 0.2
03 17.08 СЗ 13
{20}
н/о н/о +2.4 -2.5 70 -6 -6 957.6 954.1 0.6
04 17.08 СЗ 14
{19}
н/о н/о +2.6 -1.4 75 -6 -6 957.2 953.7
05 17.08 СЗ 17
{24}
н/о н/о +3.1 -0.2 79 -6 -6 956.3 952.8
06 17.08 СЗ 17
{23}
н/о н/о +4.4 -0.8 69 -4 -4 956.4 952.9 +1.1 6
07 17.08 СЗ 15
{22}
н/о н/о +4.2 -0.6 71 -3 -3 956.4 952.9 0.2
08 17.08 СЗ 17
{22}
н/о н/о +2.6 -1.6 74 -6 -6 956.0 952.5
09 17.08 СЗ 14
{20}
н/о н/о +2.8 -1.2 75 -5 -5 956.8 953.3 0.2
10 17.08 З 10
{18}
н/о н/о +2.4 -0.9 79 -5 -5 957.3 953.8
11 17.08 СЗ 12
{17}
н/о н/о +2.3 -1.0 79 -6 -6 957.5 954.0 0.2
12 17.08 СЗ 10
{18}
н/о н/о +2.1 -1.9 75 -5 -5 958.1 954.6 0.4
13 17.08 З 5
{15}
н/о н/о +1.7 -1.9 77 -4 -4 958.1 954.5
14 17.08 З 8
{14}
н/о н/о +1.6 -2.0 77 -5 -5 958.2 954.6
15 17.08 СЗ 12
{17}
н/о н/о +1.0 -1.4 84 -7 -7 958.2 954.6
16 17.08 СЗ 9
{14}
н/о н/о +1.0 -2.8 76 -6 -6 958.0 954.4
17 17.08 СЗ 9
{16}
н/о н/о +0.4 -2.2 83 -7 -7 958.0 954.4
18 17.08 СЗ 12
{17}
н/о н/о +0.4 -3.5 75 -8 -8 958.1 954.5 +4.8 0.4
06 18.08 З 11
{14}
н/о н/о +2.5 -3.0 67 -5 -5 961.0 957.4 -0.3 0.4
07 18.08 З 10
{14}
н/о н/о +3.2 -2.5 66 -4 -4 961.8 958.3
08 18.08 З 12
{16}
н/о н/о +3.1 -1.5 72 -4 -4 963.2 959.6
09 18.08 З 13
{17}
н/о н/о +2.3 -1.3 77 -6 -6 964.4 960.8
10 18.08 З 11
{16}
н/о н/о +3.1 +0.3 82 -4 -4 966.4 962.8
11 18.08 З 10
{17}
н/о н/о +2.0 -0.4 84 -5 -5 968.2 964.6 0.2
12 18.08 З 9
{14}
н/о н/о +2.1 -1.3 78 -5 -5 969.9 966.3 0.2
13 18.08 З 10
{14}
н/о н/о +0.8 -1.6 84 -7 -7 971.5 967.9
14 18.08 ЮЗ 13
{20}
н/о н/о +0.4 -1.2 89 -9 -9 973.4 969.8 0.2
15 18.08 ЮЗ 15
{19}
н/о н/о -0.4 -2.3 87 -10 -10 975.2 971.6 0.2
16 18.08 З 16
{23}
н/о н/о -1.0 -3.5 83 -11 -11 976.9 973.2
17 18.08 З 11
{18}
н/о н/о -0.9 -3.1 85 -10 -10 978.5 974.8
18 18.08 З 13
{19}
н/о н/о -1.8 -3.2 90 -12 -12 980.0 976.3 +4.4 0.4
19 18.08 З 13
{20}
н/о н/о -1.9 -4.2 84 -12 -12 980.9 977.2
20 18.08 З 12
{16}
н/о н/о -1.5 -4.0 83 -11 -11 982.1 978.4
21 18.08 З 11
{16}
н/о н/о -0.7 -4.9 73 -9 -9 982.3 978.6
22 18.08 З 9
{14}
н/о н/о -1.0 -6.8 65 -9 -9 982.1 978.4
23 18.08 СЗ 7
{12}
н/о н/о -1.1 -5.7 71 -8 -8 981.2 977.5
00 19.08 СЗ 11
{16}
н/о н/о -0.9 -4.3 78 -10 -10 980.5 976.8
01 19.08 СЗ 12
{15}
н/о н/о -0.8 -3.0 85 -10 -10 980.1 976.4
02 19.08 СЗ 11
{16}
н/о н/о -1.2 -2.8 89 -10 -10 979.4 975.7
03 19.08 СЗ 10
{14}
20 км 8/8 800 м
[Cu med, cong]
-0.5 -3.4 81 -9 -9 980.0 976.3
04 19.08 З 8
{13}
н/о н/о -0.5 -3.9 78 -8 -8 980.9 977.2
05 19.08 ЮЗ 8
{11}
н/о н/о -1.5 -4.0 83 -9 -9 981.3 977.6
06 19.08 З 7
{9}
25 км 6/6 800 м
[Cu med, cong]
-0.2 -3.6 78 -7 -6 981.8 978.1 -2.1 0.4
07 19.08 З 9
{21}
н/о н/о -1.1 -3.8 82 -9 -9 982.4 978.7 0.2
08 19.08 З 8
{15}
н/о н/о -0.4 -8.4 55 -8 -8 982.4 978.7
09 19.08 З 11
{16}
н/о н/о -0.5 -9.9 49 -8 -8 982.7 979.0 0.2
10 19.08 З 9
{14}
н/о н/о -2.4 -7.3 69 -11 -11 983.1 979.4
11 19.08 З 5
{12}
н/о н/о -2.1 -6.8 70 -8 -8 983.0 979.3
12 19.08 З 10
{13}
н/о н/о -3.1 -5.4 84 -12 -12 984.7 981.0 0.2
13 19.08 ЮЗ 9
{14}
н/о н/о -3.1 -5.6 83 -12 -12 986.0 982.3 0.0
14 19.08 ЮЗ 15
{20}
н/о н/о -2.9 -5.5 82 -14 -14 987.7 984.0
15 19.08 ЮЗ 15
{23}
н/о н/о -3.3 -5.0 88 -14 -14 989.9 986.2 0.0
17 19.08 ЮЗ 13
{21}
н/о н/о -2.5 -6.9 72 -12 -12 993.5 989.8
18 19.08 ЮЗ 12
{22}
н/о н/о -3.3 -5.5 85 -13 -13 995.3 991.5 +0.2 0.2
19 19.08 ЮЗ 15
{22}
н/о н/о -2.9 -5.2 84 -13 -13 996.9 993.1
20 19.08 ЮЗ 17
{24}
н/о н/о -4.0 -7.4 77 -15 -15 998.5 994.7
21 19.08 З 10
{22}
н/о н/о -2.6 -4.8 85 -12 -12 999.4 995.6
22 19.08 ЮЗ 14
{23}
н/о н/о -2.9 -4.9 86 -13 -13 1000.3 996.5

 

Местоположение метеостанции Порт-о-Франсе (Франц. Южн. Территории): широта -49.30 долгота 70.20 высота над уровнем моря 30 м.

В архиве по умолчанию представлена погода в Порт-о-Франсе за последнюю неделю. Архивные данные за месяц целиком и за предыдущие месяцы, начиная с января 2011 года, Вы можете получить, выбрав интересующий диапазон дат из раскрывающегося списка и нажав кнопку "Ввод!".


*Определитесь, кто Вы:
робот инопланетянин человек

Внимание! Время в таблицах - всемирное. Для получения местного времени необходимо прибавить поправку, которая равна 5 ч.

Смотрите также архив погоды в соседних городах и на ближайших метеорологических станциях:

Погода на Острове Херд (Тасмания, Австралия) (489 км)
Погода на Базе Alfred Faure (Франц. Южн. Территории) (1401 км)
Погода в Мартен-де-Вивье (Франц. Южн. Территории) (1406 км)
Погода на Моусоне (Антарктида) (2076 км)
Погода на Davis (Whoop Whoop) (Антарктида) (2184 км)
Погода на Davis (Антарктида) (2186 км)

Пояснения к столбцам:

Ветер - указаны скорость ветра в м/с - средняя за 10 мин, порывы в срок и между сроками (в фигурных скобках) и направление, откуда дует ветер: С - северный, СВ - северо-восточный, В - восточный, ЮВ - юго-восточный, Ю - южный, ЮЗ - юго-западный, З - западный, СЗ - северо-западный.
Видимость - горизонтальная дальность видимости в метрах или километрах. При видимости от 1 до 10 км при отсутствии осадков обычно наблюдается дымка, при ухудшении видимости до 1 км и менее - туман. В сухую погоду видимость может ухудшаться дымом, пылью или мглою.
Явления - указаны атмосферные явления, наблюдавшиеся в срок или в последний час перед сроком; фигурными скобками обозначены явления, наблюдавшиеся между сроками (за 1-3 часа до срока); квадратными скобками обозначены град или гололедные отложения с указанием их диаметра в мм.
Облачность - указаны через наклонную черту общая и нижняя облачность в баллах и высота нижней границы облаков в метрах; квадратными скобками обозначены формы облаков: Ci - перистые, Cs - перисто-слоистые, Cc - перисто-кучевые, Ac - высококучевые, As - высокослоистые, Sc - слоисто-кучевые, Ns - слоисто-дождевые, Cu - кучевые, Cb - кучево-дождевые. Подробнее классификацию облаков см. в Атласе облаков (PDF).
T - Температура воздуха - температура, измеренная на высоте 2 м над землей.
Td - Температура точки росы - температура, при понижении до которой содержащийся в воздухе водяной пар достигнет насыщения.
f - Относительная влажность воздуха - влажноcть воздуха, измеренная на высоте 2 м над землей.
Te - Эффективная температура - температура, которую ощущает одетый по сезону человек в тени. Характеристика душности погоды. При расчете учитывается влияние влажности воздуха и скорости ветра на теплоощущения человека.
Tes - Эффективная температура на солнце - температура, которую ощущает человек, с поправкой на солнечный нагрев. Характеристика знойности погоды. Зависит от высоты солнца над горизонтом, облачности и скорости ветра. Ночью, в пасмурную погоду, а также при ветре 12 м/с и более поправка равна нулю.
P - Атмосферное давление - приведенное к уровню моря атмосферное давление.
Po - Атмосферное давление - измеренное на уровне метеостанции атмосферное давление.
Tmin - Минимальная температура - минимум температуры воздуха на высоте 2 м над землей.
Tmax - Максимальная температура - максимум температуры воздуха на высоте 2 м над землей.
R - Количество осадков - Количество выпавших осадков за период времени, мм. При наведении курсора мыши на число - период времени, за который выпало указанное количество осадков.
R24 - Количество осадков - Количество выпавших осадков за 24 часа, мм.
S - Снежный покров - Высота снежного покрова, см. При наведении курсора мыши на число - состояние снежного покрова и степень покрытия местности в баллах.